Location: Bow
(51.5261°N, 0.0167°W)
Time: 04:33:55
(UTC+00:00)

Meteor 2-13 Rocket - Visible Passes

Search period start: 04 August 2021 00:00
Search period end: 14 August 2021 00:00
Orbit: 935 x 959 km, 82.5° (Epoch: 03 August)

Date Brightness Start Highest point End Pass type
(mag) Time Alt. Az. Time Alt. Az. Time Alt. Az.
04 Aug 7.3 21:34:46 10° W 21:38:14 15° NW 21:41:44 10° NNW visible
05 Aug 7.7 21:54:08 10° WNW 21:55:35 11° NW 21:57:03 10° NW visible
06 Aug 6.4 20:20:36 10° SW 20:26:04 34° WNW 20:31:33 10° N visible
07 Aug 8.0 03:38:16 10° NNE 03:40:36 12° NE 03:42:56 10° ENE visible
07 Aug 7.0 20:38:18 10° WSW 20:43:09 24° WNW 20:48:02 10° N visible
08 Aug 7.6 03:54:02 10° NNE 03:57:55 17° NE 04:01:47 10° E visible
08 Aug 7.4 20:56:25 10° W 21:00:21 18° WNW 21:04:18 10° NNW visible
09 Aug 7.7 21:15:12 10° WNW 21:17:39 12° NW 21:20:08 10° NNW visible
11 Aug 8.0 03:01:28 10° NE 03:02:40 11° NE 03:03:53 10° ENE visible
11 Aug 6.9 20:00:13 10° WSW 20:05:20 28° WNW 20:10:28 10° N visible
12 Aug 7.6 03:16:38 10° NNE 03:20:01 15° NE 03:23:24 10° E visible
12 Aug 7.4 20:18:09 10° WSW 20:22:29 20° WNW 20:26:50 10° NNW visible
13 Aug 7.3 03:32:46 10° N 03:37:17 21° ENE 03:41:46 10° ESE visible
13 Aug 7.7 20:36:37 10° W 20:39:45 14° NW 20:42:53 10° NNW visible
